Location: Asheville, NC
(35.6000°N, 82.5500°W)
Time: 01:37:54
(UTC-05:00)

Vanguard 3 - Pass Details

Date: 18 February 2018
Orbit: 508 x 3264 km, 33.3° (Epoch: 21 February)

Event Time Altitude Azimuth Distance (km) Brightness Sun altitude
Rises 15:22:09 0° 227° (SW) 3,616 11.7 30.0°
Reaches altitude 10° 15:25:36 10° 215° (SW) 2,304 11.0 29.5°
Maximum altitude 15:29:37 24° 162° (SSE) 1,279 8.7 28.9°
Drops below altitude 10° 15:32:47 10° 106° (ESE) 1,778 8.7 28.4°
Sets 15:35:05 0° 91° (E) 2,602 9.4 28.0°
